Location: Dumpton Point
(51.3500°N, 1.4433°E)
Time: 04:14:47
(UTC+00:00)

Altair - Pass Details

Date: 02 October 2022
Orbit: 1501 x 1682 km, 47.2° (Epoch: 04 December)

Event Time Altitude Azimuth Distance (km) Brightness Sun altitude
Rises 11:07:57 0° 287° (WNW) 4,908 9.9 34.5°
Reaches altitude 10° 11:11:21 10° 280° (W) 3,932 9.6 34.6°
Maximum altitude 11:20:21 39° 217° (SW) 2,360 9.6 34.8°
Drops below altitude 10° 11:29:22 10° 154° (SSE) 3,924 10.8 34.9°
Sets 11:32:46 0° 146° (SSE) 4,896 10.9 34.9°
